Regional Weather Roundup
Issued by NWS

Home | Current Version | Previous Version | Graphics & Text | Print | Product List | Glossary On
Versions: 1 2 3 4 5 6 7 8 9 10 11 12 13 14 15 16 17 18 19 20 21 22 23 24 25 26 27
000
ASUS45 KCYS 290810
RWRWY

WYOMING REGIONAL WEATHER ROUNDUP
NATIONAL WEATHER SERVICE CHEYENNE WY
200 AM MDT MON AUG 29 2016

NOTE:  "FAIR" INDICATES FEW OR NO CLOUDS BELOW 12,000 FEET
WITH NO SIGNIFICANT WEATHER AND/OR OBSTRUCTIONS TO VISIBILITY.

WYZ001-290900-
YELLOWSTONE NATIONAL PARK

CITY           SKY/WX    TMP DP  RH WIND       PRES   REMARKS
LK YELLOWSTONE   N/A     40  32  73 CALM      30.48R
W YELLOWSTONE  NOT AVBL

$$
WYZ002>013-054>058-071-098>099-290900-
NORTHERN WYOMING

CITY           SKY/WX    TMP DP  RH WIND       PRES   REMARKS
JACKSON        FAIR      45  32  61 N6        30.37S
CODY           FAIR      63  37  39 NW3       30.28R
GREYBULL       FAIR      70  40  33 NW9       30.16R
WORLAND        FAIR      57  32  38 S3        30.18R
SHERIDAN       FAIR      59  46  62 W3        30.20R
BUFFALO        FAIR      66  34  30 W7        30.26S
GILLETTE       FAIR      51  40  65 CALM      30.19S
HULETT         FAIR      66  43  42 E3        30.20R
NEWCASTLE      FAIR      64  37  36 CALM      30.16S

$$
WYZ014>020-022>026-101>103-290900-
CENTRAL WYOMING

CITY           SKY/WX    TMP DP  RH WIND       PRES   REMARKS
BIG PINEY      FAIR      47  30  51 NW10      30.37F
PINEDALE       FAIR      45  32  61 NW10G17   30.38S
DUBOIS         FAIR      50  27  40 W12       30.40S
LANDER         FAIR      64  32  30 W7        30.24S
RIVERTON       FAIR      62  31  31 N9        30.26R
CASPER         FAIR      52  39  61 SW3       30.24S
DOUGLAS        FAIR      54  43  66 NW3       30.21R

$$
WYZ021-027>030-104>119-290900-
SOUTHERN WYOMING

CITY           SKY/WX    TMP DP  RH WIND       PRES   REMARKS
EVANSTON       FAIR      57  28  33 SE7       30.39S
FORT BRIDGER   FAIR      62  28  28 W8        30.39F
ROCK SPRINGS   FAIR      58  25  28 W10       30.32S
DIXON          FAIR      47  35  61 CALM      30.36R
RAWLINS        FAIR      50  26  39 SW3       30.34R
SARATOGA       FAIR      50  36  57 W3        30.36S
LARAMIE        FAIR      48  39  71 S9        30.35S
CHEYENNE       FAIR      62  43  49 W10       30.28F
TORRINGTON     FAIR      61  44  53 E3        30.15F
PINE BLUFFS    FAIR      55  46  71 CALM      30.24S

$$




USA.gov is the U.S. government's official web portal to all federal, state and local government web resources and services.